Theta_e
312 313 314 314 314 313 313 313 313 313 313 313 313 313 314 315 315 308 305 312 315 322 321 310 312 313 313 308 310 307 295 293 296 298 300 307 302 309 321 317 320 323 319 321 320
313 312 314 314 314 314 313 313 313 313 313 314 314 313 314 316 307 303 313 318 321 322 309 306 304 310 306 306 307 301 294 296 302 302 302 307 304 303 313 316 315 316 321 322 318
315 315 313 313 314 314 314 313 313 313 313 313 314 313 314 313 301 302 316 318 320 318 310 309 308 308 304 305 303 302 298 301 303 305 306 306 304 306 309 311 315 316 318 318 315
316 316 316 314 313 314 314 314 313 313 313 313 313 313 316 306 286 304 318 317 318 311 309 307 305 299 300 301 307 300 303 304 306 307 306 303 306 305 311 314 320 321 321 317 314
316 316 316 315 314 314 314 314 313 313 313 312 313 313 307 293 293 303 314 310 306 305 304 301 297 297 294 300 304 302 305 307 307 307 306 307 304 304 311 317 321 321 320 316 315
317 316 316 315 315 314 314 314 314 313 313 312 312 312 299 286 303 302 304 304 303 301 300 302 299 303 298 299 299 303 304 306 308 307 307 305 304 310 312 319 319 319 316 314 314
316 316 316 315 315 315 314 314 314 313 313 312 312 307 298 293 301 302 303 300 301 302 298 302 304 300 299 296 303 303 298 301 303 306 304 307 301 303 313 320 318 317 316 314 315
314 314 315 314 314 314 314 314 313 313 312 312 311 302 292 305 299 302 301 299 301 304 303 304 304 302 299 300 298 296 297 291 298 302 303 303 295 302 316 317 316 316 316 314 316
313 314 314 314 314 314 313 313 313 312 313 311 301 297 289 304 297 301 300 297 299 301 303 305 303 298 296 292 288 290 285 289 292 300 300 301 297 303 313 314 315 315 316 315 307
313 314 314 314 313 313 312 311 311 310 306 306 303 288 293 290 297 300 301 300 297 299 297 296 295 289 291 288 279 280 282 288 290 295 299 297 297 301 306 313 314 314 313 310 307
313 314 314 313 312 310 305 296 290 288 292 287 289 289 291 296 301 298 301 298 298 294 286 290 284 283 284 287 289 288 286 287 291 295 293 295 295 296 299 306 312 310 309 308 308
314 314 314 312 310 309 301 293 293 293 284 294 294 292 295 299 292 295 300 291 290 284 287 284 281 286 288 289 289 288 286 284 289 292 291 292 292 295 297 298 307 309 308 307 302
314 314 313 311 308 301 297 296 302 298 284 289 292 291 294 297 291 291 295 292 287 284 284 281 285 289 287 285 285 285 285 285 285 289 292 290 288 290 297 298 298 309 309 307 302
314 314 312 309 300 298 294 301 302 296 274 282 286 292 293 294 287 295 296 291 288 284 285 283 287 286 285 284 286 282 288 288 287 284 280 288 280 289 293 294 296 302 305 304 303
314 312 311 307 296 295 298 301 298 287 261 281 285 296 293 288 288 289 298 293 286 286 284 282 284 283 282 283 287 284 290 286 288 285 282 282 281 287 290 289 293 295 303 301 301
312 311 308 302 297 297 300 298 289 270 261 278 285 284 284 286 287 290 290 293 292 287 286 285 288 287 285 287 289 290 288 288 288 285 277 282 282 283 288 291 293 297 302 301 300
310 308 303 302 293 299 297 287 271 264 276 272 278 283 281 281 284 285 283 281 279 273 272 281 281 285 288 284 288 287 284 276 275 275 275 283 282 285 292 295 296 297 299 301 300
307 303 301 299 297 298 289 276 262 264 268 281 281 281 279 282 281 281 281 277 282 281 277 272 272 281 289 286 283 284 284 276 268 270 272 284 280 284 293 298 300 301 302 299 298
305 296 294 296 297 295 282 265 266 270 280 275 278 273 275 280 278 278 277 276 283 285 277 277 276 284 286 288 288 284 280 286 279 278 276 282 286 291 293 295 298 298 294 294 294
294 292 291 296 295 287 275 273 270 282 283 278 271 276 268 273 272 271 275 280 282 286 286 281 275 283 284 289 290 284 289 279 280 272 273 280 282 283 288 291 296 297 294 294 294
292 285 293 295 291 281 270 269 276 284 284 280 270 273 276 274 275 267 270 279 286 284 286 283 280 278 282 280 281 282 282 283 282 281 275 275 280 288 287 292 294 296 296 294 294
288 277 293 293 277 277 270 269 283 282 284 283 279 277 275 278 274 274 269 276 285 285 279 284 282 273 276 282 288 287 282 282 275 275 281 279 280 288 287 288 295 293 293 293 294
283 284 291 290 271 271 279 277 282 281 282 282 280 281 280 278 269 274 271 283 284 279 282 285 277 272 270 278 285 283 284 285 283 283 279 277 280 288 288 290 294 291 292 291 291
285 278 281 284 281 278 274 269 271 283 282 283 282 282 278 276 279 270 271 282 285 280 287 285 281 278 269 275 281 279 281 283 283 279 279 281 283 285 286 289 292 289 290 290 291
284 280 282 273 277 277 277 274 269 272 282 283 280 279 278 272 276 271 274 280 283 285 282 279 275 278 278 279 280 281 280 281 281 282 279 282 283 288 284 288 291 291 290 291 291
282 281 282 278 280 279 280 277 276 275 279 276 278 280 280 272 277 272 278 279 278 280 279 282 271 273 273 279 279 279 280 280 282 282 282 283 283 291 285 289 290 291 291 291 290
287 286 284 282 279 278 277 277 278 280 281 282 280 279 279 280 282 282 282 282 281 278 276 279 276 274 266 276 275 269 276 279 280 282 283 280 285 291 289 288 288 289 290 290 291
Wind_Speed
4 4 5 6 7 8 9 10 11 11 12 13 14 16 17 18 17 4 4 4 6 10 9 7 7 9 4 3 4 4 2 7 8 8 8 4 2 5 6 7 2 4 9 7 19
5 5 6 7 7 8 10 11 12 13 14 15 17 18 18 18 3 5 3 8 10 8 5 6 7 9 5 4 5 6 5 8 6 5 7 12 2 0 3 8 1 4 6 20 21
5 4 5 6 6 6 8 9 11 12 14 16 18 20 21 8 1 2 7 10 12 9 1 1 1 2 3 4 5 5 11 5 5 7 8 15 5 3 6 10 10 18 24 23 19
7 8 7 6 6 6 8 9 10 11 13 15 17 20 22 1 3 2 7 12 14 8 1 1 3 3 3 5 5 11 6 4 2 4 5 8 7 10 8 13 10 19 33 26 23
6 6 7 8 7 7 7 9 10 11 12 13 15 17 7 5 1 5 10 11 7 7 4 2 1 1 4 5 9 13 14 10 5 8 7 9 9 11 10 9 7 11 22 26 23
7 6 6 7 8 7 8 9 10 11 11 12 12 12 3 2 3 6 7 7 6 5 6 1 3 6 5 6 8 10 12 13 12 11 10 12 15 5 4 5 14 18 20 22 24
7 6 6 6 7 8 9 10 11 11 11 11 10 4 1 5 2 4 6 4 5 4 4 4 5 3 1 5 4 7 16 17 15 9 9 9 19 15 6 11 16 20 16 14 13
6 6 6 6 7 7 9 10 12 13 12 11 7 2 4 5 4 7 6 7 6 5 3 7 5 6 3 5 7 6 10 15 5 13 9 6 23 7 9 17 18 16 16 15 14
7 6 6 5 6 7 10 12 13 14 11 7 2 1 5 7 5 9 3 4 6 5 5 4 2 4 1 4 8 6 13 13 12 14 6 14 19 11 13 14 19 17 19 17 9
5 4 4 4 4 7 12 15 9 6 3 0 2 1 2 5 6 8 5 5 4 5 6 3 1 1 3 7 12 7 8 12 9 2 7 15 19 12 6 16 20 17 16 16 17
4 4 4 3 4 7 6 4 6 4 7 1 3 2 5 7 6 4 5 6 4 2 2 4 1 12 9 10 14 13 16 18 12 3 6 14 14 10 11 14 20 18 19 18 15
6 5 5 3 4 7 4 5 3 2 3 4 4 4 5 3 4 8 4 5 4 4 4 3 10 13 8 11 12 15 16 18 13 12 7 12 18 9 14 11 16 20 19 20 14
6 7 6 2 3 5 4 3 2 1 3 5 3 2 6 1 4 6 4 3 3 3 4 5 10 10 9 9 12 13 16 18 15 2 9 9 9 16 9 11 13 18 21 20 24
8 8 7 3 4 2 3 1 3 3 6 6 4 2 5 3 3 5 3 1 3 4 6 9 4 2 5 8 10 16 6 18 14 8 9 3 6 9 11 9 8 13 20 18 18
9 8 7 4 3 3 1 3 3 5 5 5 6 1 7 2 5 4 3 0 6 8 1 8 8 13 15 13 4 13 8 20 16 11 9 7 7 2 9 6 8 9 12 21 19
10 7 5 4 3 1 3 4 5 10 5 5 4 6 6 4 3 5 4 2 6 5 6 16 5 7 13 14 7 4 8 15 5 7 10 13 12 6 10 14 13 11 4 12 19
10 8 4 2 2 2 3 4 8 7 5 8 3 5 4 5 6 5 5 7 3 7 5 13 5 6 5 6 4 5 6 4 4 5 6 9 10 16 9 14 17 19 12 15 16
11 7 5 3 2 3 4 8 6 4 5 2 3 6 3 7 4 6 5 5 4 3 4 4 12 3 3 3 5 8 6 4 6 3 5 8 11 6 4 6 10 13 17 17 12
11 2 3 3 3 4 7 5 9 8 3 1 4 5 5 3 1 6 3 3 1 5 5 7 7 6 14 7 8 0 6 4 6 3 3 5 5 5 1 4 7 15 16 18 15
4 3 2 5 2 5 7 5 3 3 2 4 3 2 1 5 6 7 4 4 3 2 3 5 15 8 6 3 5 2 3 1 1 4 6 2 2 2 3 4 9 13 14 14 13
4 4 2 4 3 6 4 7 4 4 2 4 4 1 2 3 1 2 6 6 1 6 7 9 7 7 7 3 3 4 6 5 2 4 3 7 3 3 5 3 4 12 14 16 14
4 3 2 2 6 3 4 6 4 3 2 2 4 4 5 3 3 3 6 6 3 4 10 3 6 5 11 5 2 3 4 7 3 4 3 3 6 6 7 6 3 8 9 10 11
4 3 2 3 4 3 2 3 1 4 4 4 3 6 5 3 2 5 4 6 4 2 3 5 5 6 11 5 2 2 2 6 5 3 3 3 4 4 7 7 4 12 11 11 12
4 3 4 3 2 6 6 3 2 3 3 3 3 5 2 3 6 6 4 5 3 4 6 3 5 5 5 6 4 6 5 1 4 2 5 4 5 9 8 5 3 7 11 11 12
2 3 5 3 4 4 5 6 3 3 4 5 3 6 6 3 3 5 4 5 4 1 4 3 5 5 13 14 12 14 10 5 3 7 4 3 7 8 6 2 3 5 8 10 10
6 6 1 2 4 7 5 6 9 4 7 5 6 4 7 6 9 7 4 2 6 3 5 1 6 4 7 4 6 10 10 9 6 6 8 7 9 1 3 3 4 7 9 9 10
2 2 5 5 4 5 6 7 9 7 6 5 8 3 6 13 9 12 9 6 6 2 2 3 3 4 7 5 7 6 7 6 4 5 5 6 7 2 7 5 3 6 6 8 10
Wind_Direction
11 4 0 358 7 5 4 3 1 359 355 352 349 345 344 343 332 356 46 274 317 328 323 342 6 342 305 246 217 159 193 218 208 204 260 213 333 341 329 162 212 173 154 167 141
353 349 338 346 352 353 350 352 351 350 348 348 347 344 340 340 333 52 280 325 333 346 359 32 351 340 312 257 222 182 208 217 200 205 250 276 181 356 34 275 172 102 73 143 142
308 311 316 315 328 332 335 337 340 342 344 344 345 341 336 342 86 11 319 346 335 336 247 162 16 309 271 272 228 216 241 210 229 228 252 275 262 220 236 238 250 165 150 160 156
295 297 288 295 301 313 321 328 331 334 338 340 342 341 333 323 100 4 332 342 337 335 149 22 28 11 264 249 266 267 236 211 224 293 331 298 301 282 218 233 253 179 161 163 163
292 296 294 288 279 293 304 313 317 323 327 330 337 342 351 22 18 323 357 343 345 0 347 299 268 191 254 298 312 264 268 273 251 295 271 288 279 272 241 261 163 195 160 169 170
289 283 289 294 279 280 290 297 303 308 315 322 332 341 350 83 286 340 356 348 341 338 316 313 253 204 274 268 269 311 298 276 267 273 287 284 287 209 214 150 158 172 173 172 173
288 280 277 282 275 273 282 289 295 302 307 312 324 336 2 231 289 336 349 312 307 300 276 267 279 207 236 298 289 283 279 279 250 239 266 351 285 237 179 166 176 175 166 175 157
276 281 285 273 279 278 280 286 294 298 298 298 315 63 259 268 284 346 332 313 309 291 251 271 263 243 217 304 317 288 269 262 205 229 229 130 258 237 183 168 185 183 168 177 166
267 267 279 272 278 283 290 294 293 292 294 296 43 130 290 312 5 303 305 278 302 293 297 274 226 222 225 266 275 242 263 265 268 215 243 202 267 266 194 207 185 184 175 167 146
260 238 257 260 276 293 304 300 287 309 352 299 262 337 311 304 296 294 274 257 262 307 338 28 149 281 241 230 242 247 254 249 253 342 227 231 246 292 278 235 192 179 176 173 164
216 212 211 218 272 318 349 11 24 1 37 72 280 248 278 287 290 289 299 336 349 12 335 301 139 239 242 238 255 266 274 273 266 29 283 237 240 257 284 273 202 185 174 169 169
181 174 171 191 339 345 80 72 97 194 322 298 260 281 271 324 312 317 14 26 358 289 308 333 242 259 243 245 253 271 277 263 252 277 250 272 240 197 267 263 261 185 186 169 149
167 159 152 132 14 36 76 110 78 155 92 309 243 263 281 8 292 287 360 339 268 279 277 217 256 299 263 271 260 262 263 265 257 256 244 276 254 234 206 270 342 224 190 178 159
155 146 135 123 55 155 60 67 28 77 68 305 339 305 320 274 277 267 242 164 314 292 310 263 255 235 304 265 230 269 281 248 231 237 252 237 279 225 184 218 304 290 174 177 170
144 139 136 80 148 75 105 22 62 56 44 272 301 275 312 162 286 292 265 135 236 249 292 262 287 299 288 263 197 270 213 263 247 226 248 210 264 251 146 207 209 305 242 172 174
138 134 110 71 60 68 40 53 50 45 265 329 309 345 2 319 268 320 349 327 256 272 213 258 269 254 248 263 226 272 255 249 263 228 237 235 218 194 189 203 194 193 272 232 174
118 104 81 79 133 5 59 49 37 114 309 301 320 351 340 294 314 23 324 322 327 349 342 306 259 288 219 268 238 244 271 276 239 221 237 198 215 240 241 193 191 184 190 203 196
120 91 45 77 31 53 58 52 86 236 231 310 328 316 329 5 313 328 324 346 4 294 291 311 320 330 342 167 313 290 231 268 257 228 277 160 224 237 304 189 173 173 175 161 205
119 41 53 354 17 83 73 60 201 200 197 35 339 48 324 329 47 351 337 257 347 34 5 297 258 311 291 285 172 357 225 202 263 263 204 238 282 287 278 130 137 160 157 168 161
101 77 21 318 36 72 76 229 205 220 153 85 144 121 286 298 11 30 322 266 326 86 58 283 289 247 282 306 224 200 330 243 198 284 267 258 274 220 267 175 188 180 171 168 157
70 83 261 335 61 54 153 220 221 229 173 161 200 285 252 262 214 282 260 294 352 317 299 274 240 296 348 240 208 11 318 231 235 222 256 310 278 273 288 295 179 174 181 166 164
119 86 314 30 60 102 149 194 215 198 181 228 126 173 202 253 265 264 236 223 132 311 316 296 288 280 241 255 157 112 222 276 182 293 229 238 269 297 330 328 179 160 159 149 146
111 128 334 92 146 207 190 288 259 181 202 182 222 201 200 226 336 228 256 262 310 342 324 348 292 308 337 353 96 60 97 274 289 353 272 288 322 338 352 320 173 145 150 145 139
109 116 346 41 144 137 156 244 265 220 216 180 240 199 149 249 205 263 274 283 311 167 294 299 268 249 228 252 299 266 253 247 288 263 297 278 311 336 9 24 155 155 143 148 151
79 209 181 190 245 163 151 149 148 215 215 189 259 204 174 259 277 243 260 276 280 74 346 81 279 311 291 274 268 270 280 264 215 266 237 303 340 334 345 300 223 159 138 153 155
139 137 57 148 115 120 182 210 184 245 154 240 217 209 204 213 200 244 230 232 248 316 8 11 280 307 288 317 311 275 287 288 214 249 278 280 296 263 319 130 121 162 162 156 162
194 60 112 166 132 121 211 191 202 166 214 196 200 180 231 243 242 253 250 238 246 301 331 274 315 314 277 318 327 335 265 248 284 195 220 211 237 201 341 348 200 168 180 173 171